sat.trackr.live / text

‹ back to catalog

STARLINK-2346

NORAD 47887 · 2021-021AD

PAYLOAD ACTIVE UNKNOWN

§ Identity

Operator
Country
US
Launch date
2021-03-14
Launch site
AFETR
Launch vehicle
Mass (kg)
RCS (m²)

Purposes: comms

External: N2YO · Heavens-Above · Gunter

§ Orbital elements

Epoch: 2026-09-15T00:37:29.544096Z

Period
94.01 min
Inclination
53.1587°
Eccentricity
0.0001391
Mean motion
15.31699563 rev/d
Perigee alt
469.8 km
Apogee alt
471.7 km
Semi-major
6,848.9 km
B*
2.5432e-5
RAAN
119.8506°
Arg perigee
71.9014°
Mean anomaly
288.2139°
Rev number
30,507

§ Raw data

STARLINK-23461 47887U 21021AD  26258.02603639  .00000424  00000+0  25432-4 0  99912 47887  53.1587 119.8506 0001391  71.9014 288.2139 15.31699563305077

JSON: /api/v1/satellites/47887 · /tle

For live sub-satellite position, see the globe view (requires WebGL).

§ Visibility from observer

Set your observer location to see the next 7 days of passes ≥ 10°. The values pass through the URL so the page stays shareable.

No JS? Fill the form by hand. The geolocation button needs JavaScript.